Regional Weather Roundup
Issued by NWS

Home | Current Version | Previous Version | Text Only | Print | Product List | Glossary Off
Versions: 1 2 3 4 5 6 7 8 9 10 11 12 13 14 15 16 17 18 19 20 21 22 23 24 25 26 27 28 29 30 31 32 33 34 35 36 37 38 39 40 41 42 43 44 45 46 47 48 49 50

000
ASUS45 KBOU 300910
RWRCO

WEATHER ROUNDUP FOR COLORADO
NATIONAL WEATHER SERVICE DENVER/BOULDER CO
300 AM MDT TUE JUN 30 2015

NOTE: "FAIR" INDICATES FEW OR NO CLOUDS BELOW 12000 FEET WITH NO
SIGNIFICANT WEATHER AND/OR OBSTRUCTIONS TO VISIBILITY.

COZ001>005-013-030-031-301000-
...NORTHWEST COLORADO...

CITY           SKY/WX    TMP DP  RH WIND       PRES   REMARKS
CRAIG          PTCLDY    53  46  77 CALM      30.24S
HAYDEN         PTCLDY    61  45  55 E7        30.26S
MEEKER         PTCLDY    55  43  63 NE6       30.26R
MOUNT WERNER   NOT AVBL
STEAMBOAT SPGS PTCLDY    53  46  77 CALM      30.30S
WALDEN         PTCLDY    46  41  81 S3        30.40S
$$

COZ006>008-011-301000-
...WEST CENTRAL VALLEYS...

CITY           SKY/WX    TMP DP  RH WIND       PRES   REMARKS
GRAND JUNCTION PTCLDY    72  42  34 E3        30.08S
MONTROSE       PTCLDY    67  46  47 SE6       30.20S
EAGLE          PTCLDY    59  45  58 E3        30.31S
RIFLE          PTCLDY    65  45  48 SE6       30.18R
DELTA          PTCLDY    70  42  35 CALM      30.15R
NUCLA          PTCLDY    68  43  40 E9        30.23S
$$

COZ017>023-064>068-301000-
...SOUTHWEST COLORADO...

CITY           SKY/WX    TMP DP  RH WIND       PRES   REMARKS
DURANGO        CLEAR     55  49  80 N5        30.30S
CORTEZ         CLEAR     59  48  67 SW3       30.21S
PAGOSA SPRINGS CLEAR     57  46  65 NE5       30.41R
TELLURIDE      CLEAR     59  41  50 SE5       30.49F
WOLF CREEK PAS NOT AVBL
$$

COZ009-010-012-014-032>034-037-058>063-301000-
...CENTRAL COLORADO...

CITY           SKY/WX    TMP DP  RH WIND       PRES   REMARKS
ASPEN          PTCLDY    55  42  61 SW8       30.36S
BUENA VISTA    CLEAR     52  47  83 W5        30.43S
COPPER MTN     CLEAR     54  37  54 S8        30.71S
BERTHOUD PASS  FAIR      45  36  70 NW13G20   30.74F
COTTONWOOD PAS NOT AVBL
GUNNISON       CLEAR     57  45  62 N7        30.42S
KREMMLING      PTCLDY    52  41  66 CALM      30.38S
LEADVILLE      CLEAR     45  40  82 E5        30.55F
MONARCH PASS   CLEAR     50  41  71 S6        30.81S
SALIDA         CLEAR     55  51  86 CALM      30.47S
SUNLIGHT       PTCLDY    59  41  51 CALM      30.63S
WILKERSON PASS CLEAR     48  43  81 SW6       30.67F
$$

COZ069>075-301000-
...SAN LUIS VALLEY/SANGRE DE CRISTO MOUNTAINS...

CITY           SKY/WX    TMP DP  RH WIND       PRES   REMARKS
ALAMOSA        CLEAR     54  46  74 SE6       30.38F
LA VETA PASS   CLEAR     52  43  71 MISG      30.58S
SAGUACHE       CLEAR     54  46  76 NW12      30.42S
$$

COZ035-036-038>040-301000-
...NORTHERN COLORADO FRONT RANGE...

CITY           SKY/WX    TMP DP  RH WIND       PRES   REMARKS
DENVER INTL AP PTCLDY    65  51  60 SW8       30.18F
DMNS CITY PARK   N/A     66  50  56 S5G10     30.19S
AURORA         PTCLDY    64  50  61 S3        30.22F
FRONT RANGE AP CLEAR     64  54  68 S8        30.20F
ERIE MUNI ARPT CLEAR     60  51  73 CALM      30.17S
BOULDER MUN AP CLEAR     70  46  43 W5        30.17F
CENTENNIAL     PTCLDY    64  49  57 SE6       30.22F
BROOMFIELD     CLEAR     64  48  55 SW3       30.21S
FORT COLLINS   CLEAR     63  54  72 CALM      30.18S
LONGMONT       CLEAR     64  51  64 CALM      30.18S
$$

COZ041-046-047-076>085-087-088-301000-
...PIKES PEAK/PALMER DIVIDE AND SOUTHERN FOOTHILLS...

CITY           SKY/WX    TMP DP  RH WIND       PRES   REMARKS
COLO. SPRINGS  PTCLDY    59  52  77 N7        30.28F
A. F. ACADEMY  CLEAR     53  48  83 N10       30.29F
ELLICOTT       CLEAR    N/A N/A N/A CALM      30.26F
FALCON         CLEAR     58  48  69 W6        30.33F
FORT CARSON    CLEAR     61  53  76 NW8       30.24F
LIMON          CLEAR     54  54 100 N6        30.21F
MONUMENT HILL  CLEAR     55  48  76 S9        30.32F
TRINIDAD       CLEAR     64  51  62 W14       30.25F
$$

COZ042>045-048>051-090-091-301000-
...NORTHEAST COLORADO...

CITY           SKY/WX    TMP DP  RH WIND       PRES   REMARKS
GREELEY ARPT   CLEAR     61  55  82 CALM      30.14F
AKRON          CLEAR     66  54  65 SW10      30.14F
BURLINGTON     CLEAR     60  53  77 SW8       30.12F
WRAY           CLEAR     60  56  87 W5        30.08F
STERLING       CLEAR     61  57  88 CALM      30.09F
HOLYOKE        CLEAR     63  57  82 W7        30.08S
FORT MORGAN    CLEAR     62   5  10 CALM      30.14F
$$

COZ086-089-092>099-301000-
...SOUTHEAST COLORADO...

CITY           SKY/WX    TMP DP  RH WIND       PRES   REMARKS
PUEBLO         CLEAR     65  54  67 W3        30.16F
LA JUNTA       CLEAR     63  54  72 W5        30.13F
LAMAR          CLEAR     59  55  87 W5        30.09F
SPRINGFIELD      N/A     60  52  74 SW7       30.16F
$$


USA.gov is the U.S. government's official web portal to all federal, state and local government web resources and services.